Location: Laas
(43.4693°N, 0.3073°E)
Time: 15:01:48
(UTC+00:00)

Cosmos 2228 - Pass Details

Date: 25 October 2020
Orbit: 590 x 617 km, 82.5° (Epoch: 24 November)

Event Time Altitude Azimuth Distance (km) Brightness Sun altitude
Rises 18:08:54 0° 197° (SSW) 2,809 6.7 -13.2°
Reaches altitude 10° 18:11:07 10° 202° (SSW) 1,915 5.9 -13.6°
Maximum altitude 18:15:16 55° 281° (W) 715 3.7 -14.4°
Drops below altitude 10° 18:19:29 10° 360° (N) 1,940 5.6 -15.1°
Sets 18:21:44 0° 5° (N) 2,851 6.4 -15.6°
